User: anonymous   Login
Location: Griffin Ranch
(33.6186°N, 110.6622°W)
Time: 16:24:46
(UTC-07:00)
Language:

Cosmos 1812 - Orbit

View from above orbital plane
View from above orbital plane
View from above satellite
View from above satellite

Ground track
Ground track

The orbit data is extracted from the following two-line orbital elements,

1 17295U 87003A   15060.02305990  .00003012  00000-0  17700-3 0  9996
2 17295 082.5117 249.1009 0004228 129.4172 230.7433 15.11344613532042
Epoch (UTC): 01 March 2015 00:33:12
Eccentricity: 0.0004228
inclination: 82.5117°
perigee height: 529 km
apogee height: 535 km
right ascension of ascending node: 249.1009°
argument of perigee: 129.4172°
revolutions per day: 15.11344613
mean anomaly at epoch: 230.7433°
orbit number at epoch: 53204

The dashed part of the orbit path shows where the satellite is in the earth's shadow,  

DLR